Location: Plainartige
(45.6866°N, 1.7993°E)
Time: 17:03:21
(UTC+00:00)

Cosmos 1602 - Pass Details

Date: 03 March 2021
Orbit: 512 x 534 km, 82.5° (Epoch: 15 April)

Event Time Altitude Azimuth Distance (km) Brightness Sun altitude
Rises 18:39:03 0° 192° (SSW) 2,648 7.4 -10.7°
Reaches altitude 10° 18:41:11 10° 194° (SSW) 1,768 6.6 -11.0°
Maximum altitude 18:45:04 73° 280° (W) 560 4.0 -11.7°
Drops below altitude 10° 18:49:00 10° 5° (N) 1,794 6.4 -12.4°
Sets 18:51:10 0° 7° (N) 2,692 7.3 -12.8°
